Location: Köln
(50.9375°N, 6.9603°E)
Time: 20:14:09
(UTC+01:00)

ISS - Visible Passes

Search period start: 07 November 2025 00:00
Search period end: 17 November 2025 00:00
Orbit: 414 x 421 km, 51.6° (Epoch: 07 November)

Date Brightness Start Highest point End Pass type
(mag) Time Alt. Az. Time Alt. Az. Time Alt. Az.
12 Nov -1.0 18:59:26 10° S 18:59:29 10° S 18:59:29 10° S visible
13 Nov -0.6 19:46:16 10° SW 19:46:19 10° SW 19:46:19 10° SW visible
14 Nov -2.1 18:58:12 10° SSW 19:00:07 24° S 19:00:07 24° S visible
15 Nov -2.1 18:10:21 10° SSW 18:12:57 21° SE 18:13:49 19° ESE visible
15 Nov -0.8 19:45:59 10° WSW 19:46:44 16° WSW 19:46:44 16° WSW visible
16 Nov -1.5 17:22:50 10° S 17:24:44 14° SE 17:26:38 10° ESE visible
16 Nov -3.0 18:57:41 10° SW 19:00:21 46° SSW 19:00:21 46° SSW visible
